ONEWEB-0152

Last updated on April 25, 2021, 12:02 a.m. UTC

1 48043U 21025B   21114.58336806 -.01085351  00000-0 -50611-1 0  9996
2 48043  87.4178 339.3603 0010807 137.3307 342.3536 15.22886185  1770
UTC
Height (km)
Latitude
Longitude
Inclination
Orbital Period
UTC large
Height (km)
Speed (km/s)
/
Latitude / Longitude
Inclination (degrees)
Orbital Period (minutes)
Azimuth
Elevation
Range (km)
Doppler Factor
iOS Compass Heading
iOS Angle

Next 30 passes for location: Hong Kong

Rise time Rise Azimuth (degrees) Set time Set Azimuth (degrees) Duration Max altitude (degrees)

No matching passes for this satellites